Flag for Germany Weather past 2 weeks in Schwerin, Mecklenburg-Western Pomerania, Germany

Now
76 °F

Partly sunny.


Feels Like: 78 °F
Forecast: 60 / 82 °F
Wind: 3 mph from Southeast

Location: Schwerin

Current Time: Jul 1, 2015 at 2:16:06 PM

Latest Report: Jul 1, 2015 at 2:00 PM


Visibility: 25 mi

Pressure: 30.24 "Hg

Humidity: 41%

Dew point: 51 °F

Location of SchwerinLocation

Historic Weather in Schwerin — Graph

°F

Schwerin temperature yesterday

Maximum temperature yesterday: 72 °F (at 2:00 PM)
Minimum temperature yesterday: 57 °F (at 6:00 AM)
Average temperature yesterday: 64 °F

Past Weeks' High & Low Weather Summary

 TemperatureHumidityPressure
High75 °F (Jun 29, 4:00 PM)98% (Jun 22, 4:00 AM)30.27 "Hg (Jun 22, 4:00 AM)
Low43 °F (Jun 17, 5:00 AM)41% (Jul 1, 1:00 PM)29.63 "Hg (Jun 23, 3:00 AM)
Average59 °F75%30.02 "Hg
* Reported Jun 16 1:00 PM — Jul 1 1:00 PM, Schwerin, Weather by CustomWeather, © 2015

Note: Actual official high and low records may vary slightly from our data, if they occured in-between our weather recording intervals... More about our weather records

Advertising

Schwerin weather history for previous 24 hours

 ConditionsComfort  
Time TempWeatherWind HumidityBarometerVisibility
1:00 PM
Wed, Jul 1
74 °FPartly sunny.3 mph41%30.25 "Hg22 mi
12:00 PM73 °FScattered clouds.2 mph45%30.26 "Hg25 mi
10:00 AM68 °FOvercast.3 mph55%30.27 "Hg22 mi
9:00 AM66 °FPartly sunny.2 mph58%30.27 "Hg17 mi
8:00 AM63 °FOvercast.2 mph67%30.26 "Hg16 mi
7:00 AM60 °FPartly sunny.2 mph78%30.26 "Hg22 mi
6:00 AM54 °FPassing clouds.1 mph97%30.26 "Hg9 mi
4:00 AM54 °FPassing clouds.1 mph96%30.24 "Hg12 mi
3:00 AM54 °FPassing clouds.1 mph93%30.24 "Hg18 mi
2:00 AM55 °FPassing clouds.2 mph91%30.24 "Hg14 mi
1:00 AM56 °FPassing clouds.2 mph88%30.24 "Hg8 mi
12:00 AM58 °FPassing clouds.2 mph80%30.23 "Hg14 mi
11:00 PM
Tue, Jun 30
61 °FOvercast.2 mph69%30.22 "Hg25 mi
10:00 PM62 °FOvercast.2 mph67%30.22 "Hg25 mi
9:00 PM66 °FPartly sunny.2 mph53%30.21 "Hg28 mi
8:00 PM67 °FOvercast.5 mph55%30.20 "Hg22 mi
7:00 PM69 °FScattered clouds.5 mph56%30.20 "Hg22 mi
6:00 PM71 °FPassing clouds.6 mph54%30.19 "Hg19 mi
4:00 PM72 °FScattered clouds.3 mph44%30.20 "Hg22 mi
3:00 PM71 °FScattered clouds.5 mph46%30.20 "Hg31 mi
2:00 PM72 °FScattered clouds.2 mph45%30.20 "Hg28 mi
Weather by CustomWeather, © 2015

See weather overviewHow to use our weather pages